TimeCST,TemperatureF,Dew PointF,Humidity,Sea Level PressureIn,VisibilityMPH,Wind Direction,Wind SpeedMPH,Gust SpeedMPH,PrecipitationIn,Events,Conditions,WindDirDegrees,DateUTC
12:13 AM,37.4,26.6,65,29.54,10.0,South,11.5,-,N/A,,Clear,190,2014-02-20 06:13:00
12:33 AM,37.4,26.6,65,29.55,10.0,SSW,10.4,16.1,N/A,,Clear,200,2014-02-20 06:33:00
12:53 AM,37.4,26.6,65,29.55,10.0,SW,10.4,-,N/A,,Clear,220,2014-02-20 06:53:00
1:13 AM,35.6,26.6,70,29.55,10.0,SSW,8.1,-,N/A,,Clear,200,2014-02-20 07:13:00
1:33 AM,33.8,26.6,75,29.55,10.0,SSW,5.8,-,N/A,,Clear,200,2014-02-20 07:33:00
1:53 AM,33.8,26.6,75,29.55,10.0,SSW,4.6,-,N/A,,Clear,210,2014-02-20 07:53:00
2:14 AM,32.0,26.6,80,29.56,10.0,SSW,4.6,-,N/A,,Clear,200,2014-02-20 08:14:00
2:33 AM,32.0,28.4,87,29.55,10.0,WSW,5.8,-,N/A,,Scattered Clouds,240,2014-02-20 08:33:00
2:53 AM,33.8,28.4,81,29.56,10.0,WSW,6.9,-,N/A,,Scattered Clouds,250,2014-02-20 08:53:00
3:13 AM,32.0,28.4,87,29.55,10.0,West,4.6,-,N/A,,Scattered Clouds,260,2014-02-20 09:13:00
3:33 AM,33.8,28.4,81,29.56,-9999.0,West,8.1,-,N/A,,Mostly Cloudy,270,2014-02-20 09:33:00
3:53 AM,33.8,30.2,87,29.56,10.0,WNW,6.9,-,N/A,,Overcast,290,2014-02-20 09:53:00
4:13 AM,35.6,30.2,81,29.56,10.0,WNW,8.1,-,N/A,,Overcast,300,2014-02-20 10:13:00
4:33 AM,35.6,30.2,81,29.56,10.0,NW,8.1,-,N/A,,Mostly Cloudy,310,2014-02-20 10:33:00
4:53 AM,35.6,30.2,81,29.56,10.0,WNW,9.2,-,N/A,,Scattered Clouds,300,2014-02-20 10:53:00
5:13 AM,37.4,30.2,75,29.55,10.0,North,6.9,-,N/A,,Scattered Clouds,350,2014-02-20 11:13:00
5:33 AM,39.2,28.4,65,29.57,10.0,NNW,9.2,-,N/A,,Scattered Clouds,340,2014-02-20 11:33:00
5:53 AM,35.6,30.2,81,29.57,10.0,Calm,Calm,-,N/A,,Scattered Clouds,0,2014-02-20 11:53:00
6:13 AM,35.6,30.2,81,29.58,10.0,WNW,3.5,-,N/A,,Clear,290,2014-02-20 12:13:00
6:33 AM,37.4,28.4,70,29.57,10.0,NW,5.8,-,N/A,,Scattered Clouds,320,2014-02-20 12:33:00
6:53 AM,37.4,28.4,70,29.58,10.0,NW,8.1,-,N/A,,Mostly Cloudy,310,2014-02-20 12:53:00
7:13 AM,35.6,28.4,75,29.58,10.0,West,5.8,-,N/A,,Mostly Cloudy,280,2014-02-20 13:13:00
7:33 AM,35.6,30.2,81,29.57,10.0,WNW,5.8,-,N/A,,Scattered Clouds,290,2014-02-20 13:33:00
7:53 AM,35.6,30.2,81,29.57,10.0,WNW,5.8,-,N/A,,Clear,290,2014-02-20 13:53:00
8:13 AM,35.6,30.2,81,29.57,10.0,West,4.6,-,N/A,,Clear,270,2014-02-20 14:13:00
8:33 AM,35.6,30.2,81,29.57,10.0,West,4.6,-,N/A,,Clear,270,2014-02-20 14:33:00
8:53 AM,35.6,30.2,81,29.56,10.0,West,5.8,-,N/A,,Scattered Clouds,280,2014-02-20 14:53:00
9:13 AM,35.6,30.2,81,29.56,10.0,West,5.8,-,N/A,,Scattered Clouds,280,2014-02-20 15:13:00
9:33 AM,35.6,30.2,81,29.57,10.0,WNW,5.8,-,N/A,,Scattered Clouds,290,2014-02-20 15:33:00
9:53 AM,35.6,30.2,81,29.57,10.0,WNW,3.5,-,N/A,,Clear,290,2014-02-20 15:53:00
10:14 AM,35.6,30.2,81,29.57,10.0,WNW,4.6,-,N/A,,Clear,290,2014-02-20 16:14:00
10:34 AM,35.6,30.2,81,29.56,10.0,WNW,4.6,-,N/A,,Clear,290,2014-02-20 16:34:00
10:53 AM,37.4,30.2,75,29.56,10.0,WNW,4.6,-,N/A,,Mostly Cloudy,300,2014-02-20 16:53:00
11:13 AM,37.4,30.2,75,29.55,10.0,NW,5.8,-,N/A,,Scattered Clouds,320,2014-02-20 17:13:00
11:33 AM,37.4,30.2,75,29.54,10.0,NW,9.2,-,N/A,,Clear,320,2014-02-20 17:33:00
11:53 AM,37.4,28.4,70,29.54,10.0,NNW,12.7,-,N/A,,Clear,330,2014-02-20 17:53:00
12:14 PM,37.4,28.4,70,29.54,10.0,NNW,12.7,-,N/A,,Clear,330,2014-02-20 18:14:00
12:33 PM,37.4,28.4,70,29.53,10.0,NNW,12.7,-,N/A,,Clear,330,2014-02-20 18:33:00
12:53 PM,37.4,30.2,75,29.52,10.0,NW,11.5,-,N/A,,Clear,320,2014-02-20 18:53:00
1:14 PM,37.4,30.2,75,29.52,10.0,NNW,11.5,-,N/A,,Scattered Clouds,330,2014-02-20 19:14:00
1:33 PM,35.6,30.2,81,29.51,10.0,NNW,13.8,-,N/A,,Scattered Clouds,330,2014-02-20 19:33:00
1:53 PM,35.6,28.4,75,29.50,10.0,NNW,13.8,-,N/A,,Clear,330,2014-02-20 19:53:00
2:13 PM,35.6,30.2,81,29.50,10.0,NNW,17.3,-,N/A,,Clear,330,2014-02-20 20:13:00
2:34 PM,35.6,28.4,75,29.50,10.0,NNW,25.3,29.9,N/A,,Clear,330,2014-02-20 20:34:00
2:53 PM,35.6,28.4,75,29.51,10.0,NNW,18.4,29.9,N/A,,Scattered Clouds,340,2014-02-20 20:53:00
3:13 PM,33.8,28.4,81,29.51,7.0,NNW,27.6,33.4,N/A,,Scattered Clouds,340,2014-02-20 21:13:00
3:33 PM,30.2,26.6,86,29.53,4.0,NNW,28.8,32.2,N/A,Snow,Light Snow,340,2014-02-20 21:33:00
3:53 PM,30.2,26.6,86,29.54,1.2,NNW,26.5,35.7,N/A,Snow,Light Snow,340,2014-02-20 21:53:00
4:14 PM,28.4,24.8,86,29.55,1.5,NNW,26.5,36.8,N/A,Snow,Light Snow,330,2014-02-20 22:14:00
4:33 PM,26.6,24.8,93,29.56,1.2,NNW,32.2,38.0,N/A,Snow,Light Snow,330,2014-02-20 22:33:00
4:53 PM,26.6,23.0,86,29.57,1.2,NNW,31.1,39.1,N/A,Snow,Light Snow,340,2014-02-20 22:53:00
5:14 PM,24.8,21.2,86,29.58,0.8,NNW,26.5,41.4,N/A,Snow,Light Snow,330,2014-02-20 23:14:00
5:33 PM,21.2,19.4,93,29.58,0.5,NNW,28.8,40.3,N/A,Snow,Light Snow,330,2014-02-20 23:33:00
5:53 PM,21.2,17.6,86,29.59,1.0,NNW,32.2,39.1,N/A,Snow,Light Snow,330,2014-02-20 23:53:00
6:13 PM,19.4,15.8,86,29.60,1.0,NNW,29.9,40.3,N/A,Snow,Light Snow,330,2014-02-21 00:13:00
6:33 PM,19.4,15.8,86,29.60,4.0,NNW,29.9,35.7,N/A,,Overcast,330,2014-02-21 00:33:00
6:53 PM,17.6,14.0,86,29.61,5.0,NW,32.2,39.1,N/A,Snow,Light Snow,320,2014-02-21 00:53:00
7:13 PM,17.6,12.2,79,29.62,7.0,NNW,29.9,38.0,N/A,,Overcast,330,2014-02-21 01:13:00
7:34 PM,17.6,12.2,79,29.62,7.0,NNW,27.6,35.7,N/A,Snow,Light Snow,330,2014-02-21 01:34:00
7:54 PM,17.6,10.4,73,29.63,7.0,NNW,28.8,36.8,N/A,,Overcast,330,2014-02-21 01:54:00
8:13 PM,17.6,10.4,73,29.62,10.0,NNW,28.8,35.7,N/A,,Overcast,330,2014-02-21 02:13:00
8:34 PM,17.6,10.4,73,29.62,10.0,NNW,29.9,38.0,N/A,,Overcast,330,2014-02-21 02:34:00
8:53 PM,17.6,10.4,73,29.62,7.0,NNW,29.9,35.7,N/A,,Overcast,330,2014-02-21 02:53:00
9:13 PM,17.6,10.4,73,29.62,10.0,NW,26.5,34.5,N/A,,Overcast,320,2014-02-21 03:13:00
9:33 PM,17.6,10.4,73,29.61,10.0,NW,28.8,34.5,N/A,Snow,Light Snow,320,2014-02-21 03:33:00
9:53 PM,15.8,10.4,79,29.61,4.0,NW,23.0,35.7,N/A,Snow,Light Snow,310,2014-02-21 03:53:00
10:13 PM,15.8,8.6,73,29.61,10.0,NW,25.3,36.8,N/A,,Overcast,320,2014-02-21 04:13:00
10:34 PM,15.8,8.6,73,29.61,10.0,NW,26.5,39.1,N/A,,Overcast,310,2014-02-21 04:34:00
10:53 PM,14.0,8.6,79,29.61,10.0,NW,28.8,32.2,N/A,,Mostly Cloudy,310,2014-02-21 04:53:00
11:13 PM,14.0,8.6,79,29.60,10.0,NW,28.8,34.5,N/A,,Mostly Cloudy,310,2014-02-21 05:13:00
11:33 PM,14.0,8.6,79,29.59,10.0,NW,27.6,35.7,N/A,,Overcast,310,2014-02-21 05:33:00
11:54 PM,12.2,6.8,79,29.59,10.0,NW,27.6,31.1,N/A,,Mostly Cloudy,310,2014-02-21 05:54:00